Location: Fort Frances
(48.6170°N, 93.4170°W)
Time: 06:29:42
(UTC-06:00)

ISS - All Passes

Search period start: 24 February 2017 00:00
Search period end: 06 March 2017 00:00
Orbit: 399 x 408 km, 51.6° (Epoch: 24 February)

Date Brightness Start Highest point End Pass type
(mag) Time Alt. Az. Time Alt. Az. Time Alt. Az.
24 Feb - 07:52:18 10° SSE 07:53:12 11° SE 07:54:05 10° ESE daylight
24 Feb - 09:25:49 10° SW 09:29:03 55° SSE 09:32:18 10° ENE daylight
24 Feb - 11:02:20 10° W 11:05:35 53° N 11:08:49 10° ENE daylight
24 Feb - 12:39:05 10° WNW 12:42:20 55° N 12:45:35 10° E daylight
24 Feb - 14:15:37 10° WNW 14:18:48 48° SSW 14:21:59 10° SE daylight
25 Feb - 08:33:36 10° SSW 08:36:37 34° SE 08:39:39 10° E daylight
25 Feb - 10:09:41 10° W 10:12:58 65° NNW 10:16:15 10° ENE daylight
25 Feb - 11:46:30 10° WNW 11:49:43 49° N 11:52:56 10° E daylight
25 Feb - 13:23:02 10° WNW 13:26:20 75° SSW 13:29:36 10° ESE daylight
25 Feb - 15:00:17 10° W 15:02:21 16° SW 15:04:24 10° S daylight
26 Feb - 07:41:39 10° SSW 07:44:14 21° SE 07:46:49 10° E daylight
26 Feb - 09:17:05 10° WSW 09:20:23 87° NNW 09:23:42 10° ENE daylight
26 Feb - 10:53:51 10° WNW 10:57:04 47° N 11:00:17 10° ENE daylight
26 Feb - 12:30:28 10° WNW 12:33:46 77° NNE 12:37:04 10° ESE daylight
26 Feb - 14:07:13 10° W 14:10:00 25° SW 14:12:46 10° SSE daylight
27 Feb - 06:50:20 10° SSE 06:51:55 13° SE 06:53:30 10° ESE daylight
27 Feb - 08:24:35 10° SW 08:27:51 63° SSE 08:31:07 10° ENE daylight
27 Feb - 10:01:10 10° W 10:04:24 51° N 10:07:39 10° ENE daylight
27 Feb - 11:37:54 10° WNW 11:41:10 59° NNE 11:44:26 10° E daylight
27 Feb - 13:14:27 10° WNW 13:17:35 41° SSW 13:20:42 10° SE daylight
28 Feb - 07:32:15 10° SW 07:35:21 40° SSE 07:38:28 10° ENE daylight
28 Feb - 09:08:29 10° W 09:11:45 60° NNW 09:15:02 10° ENE daylight
28 Feb - 10:45:16 10° WNW 10:48:31 50° N 10:51:44 10° E daylight
28 Feb - 12:21:48 10° WNW 12:25:05 65° SSW 12:28:21 10° SE daylight
28 Feb - 13:59:20 10° WSW 14:01:02 13° SW 14:02:42 10° SSW daylight
01 Mar - 06:40:09 10° SSW 06:42:54 25° SE 06:45:40 10° E daylight
01 Mar - 08:15:49 10° WSW 08:19:07 79° NNW 08:22:27 10° ENE daylight
01 Mar - 09:52:37 10° WNW 09:55:50 47° N 09:59:02 10° ENE daylight
01 Mar - 11:29:11 10° WNW 11:32:31 85° NNE 11:35:48 10° ESE daylight
01 Mar - 13:06:03 10° W 13:08:40 22° SW 13:11:16 10° SSE daylight
02 Mar - 05:48:31 10° S 05:50:31 15° SE 05:52:31 10° E visible
02 Mar - 07:23:14 10° WSW 07:26:32 73° SSE 07:29:50 10° ENE daylight
02 Mar - 08:59:54 10° W 09:03:08 49° N 09:06:22 10° ENE daylight
02 Mar - 10:36:35 10° WNW 10:39:52 64° NNE 10:43:09 10° E daylight
02 Mar - 12:13:10 10° W 12:16:14 35° SSW 12:19:16 10° SE daylight
03 Mar - 06:30:48 10° SW 06:33:58 46° SSE 06:37:10 10° ENE daylight
03 Mar - 08:07:10 10° W 08:10:26 56° N 08:13:41 10° ENE daylight
03 Mar - 09:43:56 10° WNW 09:47:11 52° N 09:50:25 10° E daylight
03 Mar - 11:20:27 10° WNW 11:23:43 57° SSW 11:26:57 10° SE daylight
03 Mar - 12:58:30 10° WSW 12:59:35 11° SW 13:00:40 10° SSW daylight
04 Mar - 05:38:35 10° SSW 05:41:28 29° SE 05:44:23 10° E visible
04 Mar - 07:14:27 10° WSW 07:17:44 72° NNW 07:21:03 10° ENE daylight
04 Mar - 08:51:15 10° WNW 08:54:28 47° N 08:57:41 10° E daylight
04 Mar - 10:27:48 10° WNW 10:31:07 86° SSW 10:34:25 10° ESE daylight
04 Mar - 12:04:48 10° W 12:07:12 19° SW 12:09:36 10° S daylight
05 Mar - 04:46:44 10° S 04:49:02 18° SE 04:51:20 10° E visible
05 Mar - 06:21:48 10° WSW 06:25:06 82° SSE 06:28:25 10° ENE daylight
05 Mar - 07:58:30 10° W 08:01:44 48° N 08:04:57 10° ENE daylight
05 Mar - 09:35:09 10° WNW 09:38:27 69° NNE 09:41:45 10° E daylight
05 Mar - 11:11:48 10° W 11:14:45 30° SW 11:17:41 10° SSE daylight
